| time (UTC) | temp F | wind direction | speed MPH | gust MPH | rain 1hr in | rain 24hr in | rain mn in | humidity % | barometer mb |
| 20260502234605 | 57 | 353 | 3.0 | 6.0 | 0.00 | 0.00 | 0.00 | 65 | 904.9 |
| 20260502233104 | 58 | 335 | 4.0 | 9.0 | 0.00 | 0.00 | 0.00 | 65 | 903.9 |
| 20260502231604 | 57 | 332 | 4.0 | 6.0 | 0.00 | 0.00 | 0.00 | 66 | 904.4 |
| 20260502230105 | 58 | 291 | 1.0 | 3.0 | 0.00 | 0.00 | 0.00 | 65 | 905.2 |
| 20260502224605 | 60 | 305 | 2.0 | 4.0 | 0.00 | 0.00 | 0.00 | 64 | 905.0 |
| 20260502223106 | 60 | 136 | 2.0 | 3.0 | 0.00 | 0.00 | 0.00 | 62 | 904.2 |
| 20260502221605 | 60 | 208 | 4.0 | 7.0 | 0.00 | 0.00 | 0.00 | 65 | 904.4 |
| 20260502214608 | 61 | 177 | 4.0 | 9.0 | 0.00 | 0.00 | 0.00 | 62 | 904.4 |
| 20260502213104 | 59 | 323 | 2.0 | 4.0 | 0.00 | 0.00 | 0.00 | 67 | 904.4 |
| 20260502211606 | 60 | 231 | 6.0 | 9.0 | 0.00 | 0.00 | 0.00 | 62 | 904.3 |
| 20260502210104 | 58 | 104 | 5.0 | 8.0 | 0.00 | 0.00 | 0.00 | 60 | 904.1 |
| 20260502204608 | 59 | 54 | 3.0 | 8.0 | 0.00 | 0.00 | 0.00 | 62 | 904.4 |
| 20260502203104 | 58 | 138 | 8.0 | 15.0 | 0.00 | 0.00 | 0.00 | 63 | 903.9 |
| 20260502200106 | 57 | 91 | 2.0 | 5.0 | 0.00 | 0.00 | 0.00 | 61 | 904.2 |
| 20260502194604 | 57 | 138 | 3.0 | 6.0 | 0.00 | 0.00 | 0.00 | 61 | 903.9 |
| 20260502193104 | 57 | 125 | 5.0 | 7.0 | 0.00 | 0.00 | 0.00 | 61 | 904.1 |
| 20260502191609 | 56 | 101 | 9.0 | 11.0 | 0.00 | 0.00 | 0.00 | 61 | 904.5 |
| 20260502190109 | 57 | 149 | 3.0 | 9.0 | 0.00 | 0.00 | 0.00 | 61 | 903.8 |
| 20260502184604 | 56 | 100 | 7.0 | 10.0 | 0.00 | 0.00 | 0.00 | 61 | 903.6 |
| 20260502183104 | 55 | 106 | 8.0 | 11.0 | 0.00 | 0.00 | 0.00 | 61 | 903.6 |
| 20260502181606 | 56 | 100 | 8.0 | 11.0 | 0.00 | 0.00 | 0.00 | 61 | 903.8 |
| 20260502180104 | 54 | 104 | 7.0 | 9.0 | 0.00 | 0.00 | 0.00 | 63 | 903.6 |
| 20260502170105 | 53 | 121 | 6.0 | 9.0 | 0.00 | 0.00 | 0.00 | 63 | 903.7 |
| 20260502163104 | 52 | 108 | 7.0 | 12.0 | 0.00 | 0.00 | 0.00 | 63 | 903.6 |
| 20260502161604 | 52 | 124 | 12.0 | 18.0 | 0.00 | 0.00 | 0.00 | 63 | 903.6 |
| 20260502160104 | 51 | 116 | 15.0 | 23.0 | 0.00 | 0.00 | 0.00 | 63 | 903.7 |
| 20260502151604 | 49 | 111 | 11.0 | 21.0 | 0.00 | 0.00 | 0.00 | 63 | 903.9 |
| 20260502150106 | 49 | 108 | 15.0 | 24.0 | 0.00 | 0.00 | 0.00 | 63 | 903.9 |
| 20260502140105 | 49 | 110 | 16.0 | 20.0 | 0.00 | 0.00 | 0.00 | 62 | 904.2 |
| 20260502130108 | 49 | 114 | 12.0 | 19.0 | 0.00 | 0.00 | 0.00 | 62 | 904.4 |
| 20260502123104 | 48 | 104 | 16.0 | 24.0 | 0.00 | 0.00 | 0.00 | 62 | 904.4 |
| 20260502121604 | 48 | 104 | 16.0 | 22.0 | 0.00 | 0.00 | 0.00 | 62 | 904.3 |
| 20260502120110 | 48 | 109 | 15.0 | 20.0 | 0.00 | 0.00 | 0.00 | 62 | 904.3 |
| 20260502114605 | 49 | 103 | 17.0 | 26.0 | 0.00 | 0.00 | 0.00 | 62 | 904.4 |
| 20260502113106 | 49 | 106 | 16.0 | 23.0 | 0.00 | 0.00 | 0.00 | 62 | 904.5 |
| 20260502111609 | 48 | 105 | 17.0 | 25.0 | 0.00 | 0.00 | 0.00 | 63 | 904.4 |
| 20260502110104 | 48 | 105 | 14.0 | 20.0 | 0.00 | 0.00 | 0.00 | 64 | 904.3 |
| 20260502104604 | 48 | 103 | 15.0 | 27.0 | 0.00 | 0.00 | 0.00 | 63 | 904.4 |
| 20260502103105 | 48 | 99 | 13.0 | 18.0 | 0.00 | 0.00 | 0.00 | 64 | 904.4 |
| 20260502100105 | 48 | 102 | 16.0 | 26.0 | 0.00 | 0.00 | 0.00 | 64 | 904.4 |
| 20260502090107 | 49 | 102 | 12.0 | 18.0 | 0.00 | 0.00 | 0.00 | 64 | 904.4 |
| 20260502080105 | 49 | 99 | 11.0 | 14.0 | 0.00 | 0.00 | 0.00 | 67 | 904.4 |
| 20260502064611 | 49 | 98 | 11.0 | 18.0 | 0.00 | 0.00 | 0.00 | 66 | 904.5 |
| 20260502063107 | 49 | 101 | 11.0 | 15.0 | 0.00 | 0.00 | 0.00 | 67 | 904.4 |
| 20260502060113 | 49 | 94 | 9.0 | 14.0 | 0.00 | 0.00 | 0.00 | 66 | 904.5 |
| 20260502054604 | 49 | 87 | 8.0 | 11.0 | 0.00 | 0.00 | 0.00 | 67 | 904.5 |
| 20260502053104 | 50 | 104 | 9.0 | 14.0 | 0.00 | 0.00 | 0.00 | 67 | 904.5 |
| 20260502050107 | 49 | 102 | 12.0 | 18.0 | 0.00 | 0.00 | 0.00 | 67 | 904.7 |
| 20260502044611 | 50 | 104 | 10.0 | 12.0 | 0.00 | 0.00 | 0.00 | 67 | 904.7 |
| 20260502043105 | 50 | 103 | 9.0 | 13.0 | 0.00 | 0.00 | 0.00 | 67 | 904.7 |
| 20260502041609 | 50 | 89 | 7.0 | 10.0 | 0.00 | 0.00 | 0.00 | 66 | 904.7 |
| 20260502040108 | 50 | 90 | 7.0 | 10.0 | 0.00 | 0.00 | 0.00 | 66 | 904.7 |
| 20260502034604 | 50 | 96 | 10.0 | 12.0 | 0.00 | 0.00 | 0.00 | 66 | 904.8 |
| 20260502033107 | 50 | 92 | 10.0 | 12.0 | 0.00 | 0.00 | 0.00 | 65 | 904.8 |
| 20260502030111 | 50 | 85 | 5.0 | 8.0 | 0.00 | 0.00 | 0.00 | 66 | 904.8 |
| 20260502024604 | 49 | 107 | 7.0 | 9.0 | 0.00 | 0.00 | 0.00 | 66 | 904.5 |
| 20260502023105 | 49 | 39 | 6.0 | 7.0 | 0.00 | 0.00 | 0.00 | 68 | 904.8 |
| 20260502021606 | 50 | 16 | 4.0 | 5.0 | 0.00 | 0.00 | 0.00 | 70 | 904.9 |
| 20260502014606 | 52 | 344 | 3.0 | 6.0 | 0.00 | 0.00 | 0.00 | 67 | 904.7 |
| 20260502013105 | 52 | 337 | 5.0 | 7.0 | 0.00 | 0.00 | 0.00 | 66 | 904.9 |
| 20260502011606 | 53 | 334 | 4.0 | 7.0 | 0.00 | 0.00 | 0.00 | 66 | 905.0 |
| 20260502010105 | 55 | 302 | 1.0 | 3.0 | 0.00 | 0.00 | 0.00 | 65 | 905.2 |
| 20260502004604 | 56 | 327 | 3.0 | 6.0 | 0.00 | 0.00 | 0.00 | 64 | 904.9 |
| 20260502003105 | 56 | 342 | 2.0 | 5.0 | 0.00 | 0.00 | 0.00 | 65 | 904.7 |
| 20260502001604 | 56 | 210 | 2.0 | 5.0 | 0.00 | 0.00 | 0.00 | 65 | 904.5 |
| 20260502000106 | 54 | 359 | 2.0 | 5.0 | 0.00 | 0.00 | 0.00 | 66 | 904.5 |